Location: Caltech
(34.1382°N, 118.1253°W)
Time: 03:17:44
(UTC-08:00)

ASTRO E2 - Visible Passes

Search period start: 23 November 2017 00:00
Search period end: 03 December 2017 00:00
Orbit: 514 x 520 km, 31.4° (Epoch: 23 November)

Date Brightness Start Highest point End Pass type
(mag) Time Alt. Az. Time Alt. Az. Time Alt. Az.
28 Nov 5.5 19:15:06 10° SW 19:15:39 13° SW 19:15:39 13° SW visible
29 Nov 4.8 18:57:34 10° SW 18:59:21 21° SSW 18:59:21 21° SSW visible
30 Nov 4.0 18:40:04 10° SW 18:43:00 31° S 18:43:00 31° S visible
01 Dec 3.5 18:22:35 10° SW 18:26:18 37° SSE 18:26:38 36° SSE visible
02 Dec 3.5 18:05:07 10° WSW 18:08:55 40° SSE 18:10:15 30° ESE visible
